This is the latest recevied weather packets stored in our database for station/object HK3BJ-11. If no packets are shown the sender has not sent any weather packets the latest 10 day(s).
| Time | Temp. | Humidity | Pressure | Rain* | Wind** | Luminosity | Snow |
|---|---|---|---|---|---|---|---|
| 1787470120 | 9.44° C | 95% | 1021 hPa | 0 mm | - | - | - |
| 1787469177 | 10.56° C | 94% | 1021 hPa | 0 mm | - | - | - |
| 1787468233 | 9.44° C | 94% | 1021 hPa | 0 mm | - | - | - |
| 1787467290 | 10.56° C | 94% | 1021 hPa | 0 mm | - | - | - |
| 1787466348 | 9.44° C | 94% | 1021 hPa | 0 mm | - | - | - |
| 1787465400 | 10.56° C | 93% | 1021 hPa | 0 mm | - | - | - |
| 1787464453 | 9.44° C | 93% | 1021 hPa | 0 mm | - | - | - |
| 1787463510 | 10.56° C | 92% | 1021 hPa | 0 mm | - | - | - |
| 1787462564 | 9.44° C | 92% | 1022 hPa | 0 mm | - | - | - |
| 1787461578 | 10.56° C | 92% | 1022 hPa | 0 mm | - | - | - |
| 1787460632 | 9.44° C | 92% | 1022 hPa | 0 mm | - | - | - |
| 1787459681 | 11.11° C | 86% | 1022 hPa | 0 mm | - | - | - |
| 1787458735 | 10° C | 86% | 1022 hPa | 0 mm | - | - | - |
| 1787457788 | 10.56° C | 86% | 1022 hPa | 0 mm | - | - | - |
| 1787456844 | 10.56° C | 88% | 1022 hPa | 0 mm | - | - | - |
| 1787455892 | 11.67° C | 87% | 1022 hPa | 0 mm | - | - | - |
| 1787454944 | 10.56° C | 87% | 1022 hPa | 0 mm | - | - | - |
| 1787453997 | 11.67° C | 88% | 1022 hPa | 0 mm | - | - | - |
| 1787453050 | 10.56° C | 88% | 1022 hPa | 0 mm | - | - | - |
| 1787452105 | 11.67° C | 85% | 1021 hPa | 0 mm | - | - | - |
| 1787451162 | 11.67° C | 87% | 1021 hPa | 0 mm | - | - | - |
| 1787450219 | 11.67° C | 89% | 1021 hPa | 0 mm | - | - | - |
| 1787449269 | 11.67° C | 88% | 1021 hPa | 0 mm | - | - | - |
| 1787448325 | 12.22° C | 85% | 1020 hPa | 0 mm | - | - | - |
| 1787447370 | 12.22° C | 87% | 1020 hPa | 0 mm | - | - | - |
* Rain latest hour (hover to see other rain measurements)
** Current wind speed in m/s (hover to see current wind gust speed)